Location: Eschentzwiller
(47.7125°N, 7.3981°E)
Time: 04:27:13
(UTC+00:00)

Cosmos 968 Rocket - Pass Details

Date: 27 October 2020
Orbit: 741 x 770 km, 74.0° (Epoch: 01 December)

Event Time Altitude Azimuth Distance (km) Brightness Sun altitude
Rises 17:56:32 0° 337° (NNW) 3,242 7.0 -16.7°
Reaches altitude 10° 17:58:55 10° 337° (NNW) 2,308 6.3 -17.1°
Maximum altitude 18:04:10 89° 250° (WSW) 765 3.4 -18.0°
Drops below altitude 10° 18:09:20 10° 160° (SSE) 2,272 5.7 -18.9°
Enters shadow 18:11:24 - 160° (SSE) 3,083 6.4 -19.3°
